Weather History for Waupaca, WI

Change the Weather History Date:

Tuesday, October 28, 2014

  Actual Average Record
Temperature  
Mean Temperature 49 °F -  
Max Temperature 54 °F 56 °F 75 °F (1966)
Min Temperature 44 °F 33 °F 19 °F (1967)
Degree Days  
Heating Degree Days 16    
Moisture  
Dew Point 42 °F    
Average Humidity 75    
Maximum Humidity 95    
Minimum Humidity 54    
Precipitation  
Precipitation 0.04 in - - ()
Sea Level Pressure  
Sea Level Pressure 29.73 in    
Wind  
Wind Speed 10 mph (WSW)    
Max Wind Speed 22 mph    
Max Gust Speed 29 mph    
Visibility 10 miles    
Events Rain    
Averages and records for this station are not official NWS values.
T = Trace of Precipitation, MM = Missing Value Source: NWS Daily Summary

Daily Weather History Graph

Daily Weather History Graph

Search for Another Location

Airport:

Trip Planner

Search our weather history database for the weather conditions in past years. The results will help you decide how hot, cold, wet, or windy it might be!

Date:

Astronomy

Oct. 28, 2014 Rise Set
Actual Time 7:27 AM CDT 5:51 PM CDT
Civil Twilight 6:57 AM CDT 6:21 PM CDT
Nautical Twilight 6:23 AM CDT 6:55 PM CDT
Astronomical Twilight 5:50 AM CDT 7:28 PM CDT
Moon 12:01 PM CDT (10/28) 9:53 PM CDT (10/28)
Length of Visible Light 11h 23m
Length of Day
10h 23m
Waxing Crescent, 24% of the Moon is Illuminated
Oct 28
Waxing Crescent
Oct 30
First Quarter
Nov 6
Full
Nov 14
Last Quarter
Nov 22
New

Hourly Weather History & Observations

Time (CDT) Temp. Windchill Dew Point Humidity Pressure Visibility Wind Dir Wind Speed Gust Speed Precip Events Conditions
12:15 AM 53.8 °F - 52.0 °F 94% 29.56 in 10.0 mi NNW 4.6 mph - N/A Rain Rain
12:35 AM 53.8 °F - 52.0 °F 94% 29.56 in 10.0 mi Calm Calm - 0.01 in Rain Light Rain
12:55 AM 53.8 °F - 52.2 °F 94% 29.56 in 7.0 mi Calm Calm - 0.03 in Rain Rain
1:15 AM 53.6 °F - 52.2 °F 95% 29.56 in 10.0 mi WNW 3.5 mph - N/A   Overcast
1:35 AM 53.6 °F - 52.2 °F 95% 29.57 in 10.0 mi Calm Calm - 0.01 in   Overcast
1:55 AM 53.6 °F - 52.3 °F 95% 29.58 in 10.0 mi Calm Calm - 0.01 in   Overcast
2:15 AM 53.6 °F - 52.3 °F 95% 29.58 in 10.0 mi WSW 5.8 mph - N/A   Overcast
2:35 AM 53.6 °F - 52.2 °F 95% 29.59 in 10.0 mi WSW 5.8 mph - N/A   Scattered Clouds
2:55 AM 53.6 °F - 52.3 °F 95% 29.59 in 10.0 mi West 6.9 mph - N/A   Clear
3:15 AM 54.0 °F - 52.2 °F 94% 29.60 in 10.0 mi West 12.7 mph 17.3 mph N/A   Clear
3:35 AM 53.6 °F - 49.5 °F 86% 29.61 in 10.0 mi West 15.0 mph 23.0 mph N/A   Clear
3:55 AM 53.6 °F - 48.4 °F 82% 29.61 in 10.0 mi West 15.0 mph 20.7 mph N/A   Clear
4:15 AM 53.1 °F - 48.0 °F 83% 29.62 in 10.0 mi West 13.8 mph 21.9 mph N/A   Clear
4:35 AM 52.5 °F - 47.1 °F 82% 29.62 in 10.0 mi West 12.7 mph 19.6 mph N/A   Clear
4:55 AM 52.0 °F - 46.4 °F 81% 29.62 in 10.0 mi West 12.7 mph 16.1 mph N/A   Clear
5:15 AM 51.1 °F - 46.6 °F 85% 29.63 in 10.0 mi West 10.4 mph - N/A   Clear
5:35 AM 50.2 °F - 45.5 °F 84% 29.64 in 10.0 mi West 11.5 mph - N/A   Clear
5:55 AM 50.0 °F - 44.4 °F 81% 29.66 in 10.0 mi WSW 12.7 mph 19.6 mph N/A   Clear
6:15 AM 49.1 °F - 43.2 °F 80% 29.67 in 10.0 mi WSW 12.7 mph - N/A   Clear
6:35 AM 48.2 °F - 42.4 °F 80% 29.68 in 10.0 mi West 12.7 mph - N/A   Clear
6:55 AM 47.5 °F - 42.3 °F 82% 29.68 in 10.0 mi West 15.0 mph 20.7 mph N/A   Clear
7:15 AM 47.1 °F - 42.1 °F 83% 29.69 in 10.0 mi West 10.4 mph - N/A   Clear
7:35 AM 46.4 °F 41.9 °F 42.1 °F 85% 29.69 in 10.0 mi WSW 9.2 mph - N/A   Clear
7:55 AM 45.9 °F 41.7 °F 42.3 °F 87% 29.69 in 10.0 mi WSW 8.1 mph - N/A   Clear
8:15 AM 46.4 °F 41.5 °F 42.3 °F 85% 29.69 in 10.0 mi WSW 10.4 mph - N/A   Clear
8:35 AM 46.6 °F - 42.6 °F 86% 29.70 in 10.0 mi WSW 9.2 mph - N/A   Clear
8:55 AM 48.2 °F - 43.2 °F 83% 29.70 in 10.0 mi WSW 12.7 mph 17.3 mph N/A   Scattered Clouds
9:15 AM 48.2 °F - 43.5 °F 84% 29.70 in 10.0 mi WSW 12.7 mph 17.3 mph N/A   Overcast
9:35 AM 48.6 °F - 43.2 °F 82% 29.70 in 10.0 mi WSW 13.8 mph 18.4 mph N/A   Mostly Cloudy
9:55 AM 49.1 °F - 42.3 °F 77% 29.70 in 10.0 mi WSW 13.8 mph 21.9 mph N/A   Overcast
10:15 AM 50.0 °F - 41.7 °F 73% 29.71 in 10.0 mi WSW 18.4 mph 21.9 mph N/A   Overcast
10:35 AM 51.4 °F - 41.4 °F 68% 29.71 in 10.0 mi WSW 15.0 mph 20.7 mph N/A   Scattered Clouds
10:55 AM 52.2 °F - 40.6 °F 65% 29.71 in 10.0 mi West 13.8 mph 23.0 mph N/A   Clear
11:15 AM 53.6 °F - 39.9 °F 60% 29.72 in 10.0 mi WSW 19.6 mph 25.3 mph N/A   Mostly Cloudy
11:35 AM 53.2 °F - 38.3 °F 57% 29.72 in 10.0 mi West 15.0 mph 24.2 mph N/A   Mostly Cloudy
11:55 AM 52.5 °F - 36.9 °F 55% 29.72 in 10.0 mi West 21.9 mph 26.5 mph N/A   Mostly Cloudy
12:15 PM 50.5 °F - 35.6 °F 57% 29.72 in 10.0 mi WSW 17.3 mph 25.3 mph N/A   Scattered Clouds
12:35 PM 51.6 °F - 35.8 °F 55% 29.73 in 10.0 mi WSW 15.0 mph 26.5 mph N/A   Mostly Cloudy
12:55 PM 51.1 °F - 34.9 °F 54% 29.74 in 10.0 mi WSW 21.9 mph 28.8 mph N/A   Overcast
1:15 PM 50.7 °F - 34.7 °F 54% 29.75 in 10.0 mi WSW 21.9 mph 28.8 mph N/A   Overcast
1:35 PM 50.0 °F - 35.4 °F 57% 29.76 in 10.0 mi West 17.3 mph 20.7 mph N/A   Overcast
1:55 PM 49.1 °F - 35.1 °F 58% 29.77 in 10.0 mi West 15.0 mph 24.2 mph N/A   Overcast
2:15 PM 49.1 °F - 34.3 °F 57% 29.77 in 10.0 mi West 11.5 mph 21.9 mph N/A   Overcast
2:35 PM 49.5 °F - 34.9 °F 57% 29.78 in 10.0 mi West 13.8 mph 18.4 mph N/A   Overcast
2:55 PM 49.6 °F - 35.4 °F 58% 29.78 in 10.0 mi WSW 18.4 mph 24.2 mph N/A   Overcast
3:15 PM 49.8 °F - 34.9 °F 56% 29.78 in 10.0 mi WSW 20.7 mph 26.5 mph N/A   Overcast
3:35 PM 50.0 °F - 34.9 °F 56% 29.79 in 10.0 mi West 16.1 mph 24.2 mph N/A   Overcast
3:55 PM 50.0 °F - 36.0 °F 59% 29.79 in 10.0 mi WSW 12.7 mph - N/A   Overcast
4:15 PM 50.0 °F - 36.3 °F 59% 29.79 in 10.0 mi WSW 16.1 mph 21.9 mph N/A   Overcast
4:35 PM 51.1 °F - 36.3 °F 57% 29.79 in 10.0 mi WSW 13.8 mph 20.7 mph N/A   Overcast
4:55 PM 50.0 °F - 36.0 °F 59% 29.80 in 10.0 mi WSW 12.7 mph - N/A   Overcast
5:15 PM 49.6 °F - 36.7 °F 61% 29.80 in 10.0 mi SW 9.2 mph - N/A   Overcast
5:35 PM 49.3 °F - 37.8 °F 65% 29.81 in 10.0 mi WSW 11.5 mph 19.6 mph N/A   Overcast
5:55 PM 49.1 °F - 37.4 °F 64% 29.81 in 10.0 mi WSW 15.0 mph 18.4 mph N/A   Overcast
6:15 PM 48.2 °F - 37.9 °F 68% 29.81 in 10.0 mi SW 13.8 mph 18.4 mph N/A   Scattered Clouds
6:35 PM 48.2 °F - 38.3 °F 69% 29.81 in 10.0 mi WSW 13.8 mph 20.7 mph N/A   Mostly Cloudy
6:55 PM 48.2 °F - 39.9 °F 73% 29.83 in 7.0 mi SW 11.5 mph 19.6 mph N/A Rain Light Rain
7:15 PM 46.9 °F - 40.5 °F 78% 29.83 in 10.0 mi WSW 12.7 mph 17.3 mph N/A   Overcast
7:35 PM 46.9 °F - 40.1 °F 77% 29.84 in 10.0 mi WSW 11.5 mph 16.1 mph N/A   Overcast
7:55 PM 47.3 °F - 40.3 °F 77% 29.83 in 10.0 mi SW 12.7 mph 20.7 mph N/A   Overcast
8:15 PM 47.3 °F - 39.9 °F 76% 29.83 in 10.0 mi WSW 16.1 mph 24.2 mph N/A   Overcast
8:35 PM 47.3 °F - 40.1 °F 76% 29.83 in 10.0 mi WSW 15.0 mph 21.9 mph N/A   Overcast
8:55 PM 47.3 °F - 40.1 °F 76% 29.83 in 10.0 mi WSW 11.5 mph - N/A   Overcast
9:15 PM 47.3 °F - 39.6 °F 74% 29.84 in 10.0 mi WSW 12.7 mph 18.4 mph N/A   Overcast
9:35 PM 46.9 °F - 39.2 °F 74% 29.84 in 10.0 mi WSW 13.8 mph 21.9 mph N/A   Overcast
9:55 PM 46.8 °F - 39.2 °F 75% 29.84 in 10.0 mi WSW 12.7 mph 17.3 mph N/A   Overcast
10:15 PM 46.2 °F 39.8 °F 38.5 °F 74% 29.85 in 10.0 mi WSW 15.0 mph 21.9 mph N/A   Overcast
10:35 PM 45.9 °F 39.7 °F 37.2 °F 72% 29.85 in 10.0 mi WSW 13.8 mph 23.0 mph N/A   Overcast
10:55 PM 45.5 °F 39.9 °F 37.2 °F 73% 29.85 in 10.0 mi WSW 11.5 mph 19.6 mph N/A   Overcast
11:15 PM 44.8 °F 38.7 °F 36.7 °F 73% 29.86 in 10.0 mi West 12.7 mph 25.3 mph N/A   Overcast
11:35 PM 44.6 °F 37.2 °F 35.4 °F 70% 29.86 in 10.0 mi West 17.3 mph 24.2 mph N/A   Overcast
11:55 PM 44.4 °F 37.9 °F 34.3 °F 68% 29.86 in 10.0 mi West 13.8 mph 20.7 mph N/A   Overcast